Date String (YYYY-MM-DD hh:mm:ss) UTC,Instrument flags,Ambient pressure (hPa),Sample flow (lpm),Bypass flow (lpm),Sample temperature (°C),Ambient temperature (°C),ASC tube jacket temperature (°C),LED temperature (°C),Box temperature (°C),Sample RH (%),Span deviation,Mass concentration (μg/m³),Mass concentration (μg/m³),Mass concentration (μg/m³)
DateTimeUTC,F1_M11,P_M11,Q1_M11,Q2_M11,T1_M11,T2_M11,T3_M11,T4_M11,T5_M11,U1_M11,ZSPAN_M11,X0_M11,X2_M11,X1_M11
2022-07-12 10:00:00,,0830.9,5.00,0.00,30.2,29.1,00.0,38.9,32.0,28.8,0000.0,0017.18,0010.51,0009.45
2022-07-12 10:01:00,,0830.9,5.00,0.00,30.2,29.1,00.0,38.9,32.0,28.7,0000.0,0017.22,0010.49,0009.44
2022-07-12 10:02:00,,0830.9,5.00,0.00,30.2,29.1,00.0,38.9,32.0,28.7,0000.0,0017.01,0010.51,0009.43
2022-07-12 10:03:00,,0830.9,5.00,0.00,30.2,29.1,00.0,39.0,32.1,28.8,0000.0,0017.15,0010.46,0009.42
2022-07-12 10:04:00,,0830.9,5.00,0.00,30.2,29.2,00.0,39.0,32.1,28.8,0000.0,0017.62,0010.46,0009.42
2022-07-12 10:05:00,,0830.9,4.99,0.00,30.2,29.0,00.0,39.0,32.1,28.8,0000.0,0018.13,0010.50,0009.41
2022-07-12 10:06:00,,0830.9,5.00,0.00,30.2,28.1,00.0,38.9,32.0,28.8,0000.0,0018.74,0010.48,0009.41
2022-07-12 10:07:00,,0830.9,4.99,0.00,30.1,27.6,00.0,38.8,31.9,28.9,0000.0,0019.09,0010.45,0009.41
2022-07-12 10:08:00,,0830.9,5.01,0.00,30.0,27.5,00.0,38.8,31.7,28.9,0000.0,0019.21,0010.41,0009.40
2022-07-12 10:09:00,,0830.9,5.00,0.00,30.0,27.6,00.0,38.8,31.6,29.0,0000.0,0019.11,0010.41,0009.38
2022-07-12 10:10:00,,0830.9,4.99,0.00,29.9,27.7,00.0,38.8,31.6,29.0,0002.2,0019.57,0010.42,0009.34
2022-07-12 10:11:00,,0830.8,5.00,0.00,29.9,27.8,00.0,38.8,31.6,29.0,0002.1,0020.42,0010.43,0009.31
2022-07-12 10:12:00,,0830.8,5.00,0.00,29.9,27.9,00.0,38.8,31.6,29.1,0000.7,0020.08,0010.48,0009.28
2022-07-12 10:13:00,,0830.8,4.99,0.00,29.9,28.1,00.0,38.8,31.6,29.1,0001.1,0020.02,0010.45,0009.28
2022-07-12 10:14:00,,0830.7,5.01,0.00,29.9,28.2,00.0,38.7,31.6,29.2,0000.7,0019.86,0010.49,0009.29
2022-07-12 10:15:00,,0830.7,4.99,0.00,29.9,28.3,00.0,38.7,31.7,29.2,0000.4,0019.34,0010.49,0009.26
2022-07-12 10:16:00,,0830.8,5.00,0.00,29.9,28.4,00.0,38.7,31.7,29.1,0000.3,0018.60,0010.49,0009.26
2022-07-12 10:17:00,,0830.7,5.00,0.00,29.9,28.4,00.0,38.7,31.7,29.0,0000.1,0018.09,0010.45,0009.26
2022-07-12 10:18:00,,0830.7,5.02,0.00,29.9,28.5,00.0,38.7,31.7,29.0,0000.7,0017.95,0010.46,0009.26
2022-07-12 10:19:00,,0830.8,5.01,0.00,29.9,28.6,00.0,38.7,31.7,29.0,0001.0,0017.54,0010.49,0009.29
2022-07-12 10:20:00,,0830.7,5.00,0.00,29.9,28.6,00.0,38.7,31.8,29.0,0000.6,0017.43,0010.48,0009.30
2022-07-12 10:21:00,,0830.8,5.00,0.00,29.9,28.7,00.0,38.7,31.8,29.0,0000.0,0017.28,0010.52,0009.34
2022-07-12 10:22:00,,0830.8,4.99,0.00,29.9,28.7,00.0,38.7,31.8,29.0,0000.0,0016.58,0010.53,0009.37
2022-07-12 10:23:00,,0830.9,5.00,0.00,29.9,28.7,00.0,38.8,31.8,28.9,0000.0,0016.33,0010.55,0009.40
2022-07-12 10:24:00,,0830.9,5.01,0.00,30.0,28.8,00.0,38.8,31.8,29.0,0000.0,0016.42,0010.52,0009.37
2022-07-12 10:25:00,,0830.9,5.00,0.00,30.0,28.8,00.0,38.8,31.9,29.0,0000.0,0016.39,0010.46,0009.34
2022-07-12 10:26:00,,0830.9,5.00,0.00,30.0,28.8,00.0,38.8,31.9,28.9,0000.0,0016.52,0010.41,0009.33
2022-07-12 10:27:00,,0830.9,5.00,0.00,30.0,28.9,00.0,38.8,31.9,28.8,0000.0,0017.22,0010.36,0009.33
2022-07-12 10:28:00,,0830.9,4.99,0.00,30.0,28.9,00.0,38.8,31.9,28.8,0000.0,0018.22,0010.36,0009.34
2022-07-12 10:29:00,,0830.9,5.01,0.00,30.0,28.9,00.0,38.8,31.9,28.7,0000.0,0018.14,0010.33,0009.34
2022-07-12 10:30:00,,0830.9,4.99,0.00,30.1,29.0,00.0,38.8,32.0,28.7,0000.0,0017.92,0010.27,0009.33
2022-07-12 10:31:00,,0830.9,4.99,0.00,30.1,29.0,00.0,38.9,32.0,28.6,0000.0,0017.87,0010.27,0009.34
2022-07-12 10:32:00,,0830.9,5.01,0.00,30.1,29.0,00.0,38.9,32.0,28.7,0000.0,0017.80,0010.26,0009.34
2022-07-12 10:33:00,,0830.9,5.00,0.00,30.1,29.0,00.0,38.9,32.0,28.7,0000.0,0017.93,0010.20,0009.29
2022-07-12 10:34:00,,0830.8,5.00,0.00,30.1,29.0,00.0,38.9,32.0,28.6,0000.0,0017.95,0010.08,0009.24
2022-07-12 10:35:00,,0830.8,5.00,0.00,30.1,29.1,00.0,38.9,32.0,28.5,0000.0,0017.87,0010.11,0009.26
2022-07-12 10:36:00,,0830.8,5.00,0.00,30.2,29.1,00.0,38.9,32.1,28.5,0000.0,0018.02,0010.16,0009.28
2022-07-12 10:37:00,,0830.8,5.01,0.00,30.2,29.1,00.0,38.9,32.0,28.5,0000.0,0017.90,0010.17,0009.29
2022-07-12 10:38:00,,0830.8,5.00,0.00,30.2,29.1,00.0,39.0,32.1,28.5,0000.0,0017.79,0010.20,0009.27
2022-07-12 10:39:00,,0830.7,5.00,0.00,30.2,29.2,00.0,39.0,32.1,28.4,0000.0,0016.70,0010.23,0009.25
2022-07-12 10:40:00,,0830.7,5.01,0.00,30.2,29.2,00.0,39.0,32.1,28.3,0000.0,0016.22,0010.22,0009.21
2022-07-12 10:41:00,,0830.7,5.00,0.00,30.2,29.2,00.0,39.0,32.1,28.3,0000.0,0016.45,0010.18,0009.13
2022-07-12 10:42:00,,0830.8,4.99,0.00,30.3,29.2,00.0,39.0,32.1,28.2,0000.0,0016.71,0010.18,0009.08
2022-07-12 10:43:00,,0830.8,5.01,0.00,30.3,29.2,00.0,39.0,32.1,28.2,0000.0,0016.81,0010.11,0009.02
2022-07-12 10:44:00,,0830.8,5.00,0.00,30.3,29.2,00.0,39.0,32.2,28.2,0000.0,0016.99,0010.09,0009.03
2022-07-12 10:45:00,,0830.7,4.99,0.00,30.3,28.6,00.0,39.0,32.1,28.3,0000.4,0016.68,0010.11,0009.03
2022-07-12 10:46:00,,0830.8,5.01,0.00,30.2,27.9,00.0,38.9,32.0,28.4,0001.3,0017.39,0010.08,0009.01
2022-07-12 10:47:00,,0830.8,4.99,0.00,30.2,27.7,00.0,38.9,31.8,28.6,0002.4,0018.06,0010.08,0008.97
2022-07-12 10:48:00,,0830.8,5.01,0.00,30.0,27.6,00.0,38.9,31.7,28.9,0002.7,0018.95,0010.06,0008.93
2022-07-12 10:49:00,,0830.9,5.00,0.00,30.0,27.7,00.0,38.8,31.7,28.9,0001.6,0019.85,0010.03,0008.91
2022-07-12 10:50:00,,0830.9,4.99,0.00,29.9,27.8,00.0,38.8,31.6,29.0,0001.2,0019.86,0010.01,0008.92
2022-07-12 10:51:00,,0830.9,5.01,0.00,29.9,27.9,00.0,38.8,31.7,29.0,0002.0,0021.08,0010.10,0008.94
2022-07-12 10:52:00,,0831.0,5.00,0.00,29.9,28.1,00.0,38.8,31.7,29.0,0002.2,0021.58,0010.18,0008.98
2022-07-12 10:53:00,,0830.9,5.00,0.00,29.9,28.2,00.0,38.8,31.7,29.0,0002.0,0021.68,0010.24,0009.01
2022-07-12 10:54:00,,0830.9,5.01,0.00,29.9,28.3,00.0,38.8,31.7,29.1,0001.5,0022.31,0010.25,0009.03
2022-07-12 10:55:00,,0830.9,5.00,0.00,29.9,28.4,00.0,38.8,31.7,29.3,0000.5,0022.05,0010.26,0009.00
2022-07-12 10:56:00,,0831.0,5.01,0.00,29.9,28.5,00.0,38.8,31.7,29.4,0000.6,0021.96,0010.27,0008.96
2022-07-12 10:57:00,,0830.9,5.00,0.00,29.9,28.5,00.0,38.8,31.7,29.2,0000.7,0021.99,0010.28,0008.93
2022-07-12 10:58:00,,0830.9,5.00,0.00,29.9,28.6,00.0,38.8,31.7,29.1,-000.1,0021.01,0010.20,0008.91
2022-07-12 10:59:00,,0830.9,5.00,0.00,30.0,28.7,00.0,38.8,31.8,29.1,-000.9,0019.98,0010.19,0008.91
